Regional Weather Roundup
Issued by NWS Cleveland, OH

Home | Current Version | Previous Version | Graphics & Text | Print | Product List | Glossary On
Versions: 1 2 3 4 5 6 7 8 9 10 11 12 13 14 15 16 17 18 19 20 21 22 23 24 25 26 27 28 29 30 31 32 33 34 35 36 37 38 39 40 41 42 43 44 45 46 47 48 49 50
000
ASUS41 KCLE 080900
RWRCLE
OHIO REGIONAL WEATHER ROUNDUP
NATIONAL WEATHER SERVICE WILMINGTON, OH
400 AM EST THU DEC 08 2016

NOTE: "FAIR" INDICATES FEW OR NO CLOUDS BELOW 12,000 FEET WITH NO
SIGNIFICANT WEATHER AND/OR OBSTRUCTIONS TO VISIBILITY.

OHZ001>008-015>018-024>027-034-035-043-044-081000-
   NORTHWEST OHIO

CITY           SKY/WX    TMP DP  RH WIND       PRES   REMARKS
DEFIANCE       CLOUDY    26  16  65 W14G22    30.11S WCI  14
FINDLAY        CLOUDY    27  18  69 W17       30.08F WCI  14
TOLEDO EXPRESS CLOUDY    26  18  71 W17G24    30.07S WCI  13
TOLEDO EXEC    CLOUDY    28  19  69 W15       30.07F WCI  16
LIMA           CLOUDY    25  19  78 W18       30.10F WCI  11
$$

OHZ009>014-019>023-028>033-038-089-081000-
   NORTHEAST OHIO

CITY           SKY/WX    TMP DP  RH WIND       PRES   REMARKS
CLE-HOPKINS    MOCLDY    30  19  63 SW15      30.06F WCI  19
CLE-LAKEFRONT  CLOUDY    30  20  66 SW16      30.04F WCI  19
CUY CO. ARPT   NOT AVBL
LORAIN-ELYRIA  CLOUDY    28  18  66 W13       30.05F WCI  17
ASHTABULA      CLOUDY    31  23  72 SW12      30.00F WCI  22
AKRON-CANTON   CLOUDY    29  20  69 W10       30.03F WCI  20
WOOSTER        NOT AVBL
MANSFIELD      CLOUDY    27  20  75 W7        30.05S WCI  19
YOUNGSTOWN     CLOUDY    29  21  72 W7        30.01F WCI  22
$$

OHZ042-051>053-060>062-070>072-077>081-081000-
  SOUTHWEST OHIO

CITY           SKY/WX    TMP DP  RH WIND       PRES   REMARKS
CINC-COVINGTON CLOUDY    29  22  75 W12       30.18R WCI  19
CINC-LUNKEN    CLOUDY    31  22  69 W13       30.21S WCI  21
HAMILTON       CLOUDY    29  22  75 W7        30.20R WCI  22
DAYTON         NOT AVBL
WRIGHT-PAT AFB CLOUDY    29  21  72 W8        30.14F WCI  21
DAYTON GENERAL CLOUDY    29  18  63 W10       30.14S WCI  20
WILMINGTON     CLOUDY    28  21  75 W12       30.14S WCI  18
$$

OHZ036-037-039>041-045>050-054>059-063>069-073>076-082>088-081000-
  CENTRAL AND SOUTHEAST OHIO

CITY           SKY/WX    TMP DP  RH WIND       PRES   REMARKS
COLUMBUS       CLOUDY    30  24  78 W10       30.11F WCI  21
OSU AIRPORT    CLOUDY    29  23  78 W9        30.11S WCI  20
BOLTON FIELD   NOT AVBL
RICKENBACK AFB NOT AVBL
NEWARK         CLOUDY    31  23  72 W9        30.09F WCI  23
MARION         CLOUDY    28  20  71 W13G21    30.09S WCI  17
LANCASTER      CLOUDY    31  24  75 W12       30.12S WCI  22
ZANESVILLE     CLOUDY    32  24  72 W6        30.09F WCI  26
NEW PHILLY     CLOUDY    32  22  66 W6        30.07F WCI  26
$$




USA.gov is the U.S. government's official web portal to all federal, state and local government web resources and services.